{"data":{"norad_id":46357,"epoch":"2026-05-25T03:22:01.060320Z","epoch_age_seconds":69751,"freshness":"FRESH","line1":"1 46357U 20062AJ  26145.14029005  .00149871  00000+0  92481-3 0  9990","line2":"2 46357  53.0372 317.8299 0001315 233.2315 126.8583 15.76199744316898","mean_motion":15.76199744,"eccentricity":0.0001315,"inclination_deg":53.0372,"raan_deg":317.8299,"arg_perigee_deg":233.2315,"mean_anomaly_deg":126.8583,"bstar":0.00092481,"rev_number":31689,"period_min":91.358979436555,"perigee_km":340.33574083239,"apogee_km":342.1029315488,"semimajor_km":6719.3563361906,"source":"CELESTRAK","updated_at":"2026-05-25T13:38:16.473500Z"}}